SQ9NFI-4 Weather Reports


time (UTC)temp
C
wind
direction
speed
KPH
gust
KPH
rain 1hr
cm
rain 24hr
cm
rain mn
cm
humidity
%
barometer
mb
20260506190438 15 334 0.0 0.0 0.00 0.00 0.00 74 1007.5
20260506185938 15 337 0.0 0.0 0.00 0.00 0.00 78 1007.5
20260506185438 15 339 1.6 1.6 0.00 0.00 0.00 74 1007.5
20260506184938 15 337 3.2 3.2 0.00 0.00 0.00 73 1007.5
20260506184438 16 336 0.0 0.0 0.00 0.00 0.00 75 1006.8
20260506183938 16 336 0.0 0.0 0.00 0.00 0.00 71 1006.8
20260506183438 16 336 0.0 0.0 0.00 0.00 0.00 73 1006.8
20260506182938 17 335 1.6 1.6 0.00 0.00 0.00 70 1006.8
20260506182438 17 329 0.0 0.0 0.00 0.00 0.00 70 1006.8
20260506181938 17 327 1.6 1.6 0.00 0.00 0.00 69 1006.4
20260506181438 18 331 0.0 0.0 0.00 0.00 0.00 63 1006.4
20260506180938 18 326 0.0 0.0 0.00 0.00 0.00 64 1006.4
20260506180438 19 325 0.0 0.0 0.00 0.00 0.00 58 1006.4
20260506175938 19 327 1.6 1.6 0.00 0.00 0.00 62 1006.4
20260506175438 20 336 0.0 1.6 0.00 0.00 0.00 55 1006.4
20260506174938 20 327 0.0 0.0 0.00 0.00 0.00 56 1006.4
20260506174438 20 326 0.0 0.0 0.00 0.00 0.00 54 1006.8
20260506173938 20 294 3.2 3.2 0.00 0.00 0.00 49 1006.8
20260506173438 20 336 0.0 1.6 0.00 0.00 0.00 49 1006.8
20260506172938 20 264 3.2 4.8 0.00 0.00 0.00 47 1006.8
20260506172438 20 290 3.2 3.2 0.00 0.00 0.00 47 1006.8
20260506171938 20 320 1.6 1.6 0.00 0.00 0.00 49 1006.8
20260506171438 20 341 0.0 0.0 0.00 0.00 0.00 49 1006.8
20260506170938 20 323 0.0 0.0 0.00 0.00 0.00 47 1006.8
20260506170438 21 317 1.6 1.6 0.00 0.00 0.00 47 1006.8
20260506165938 21 29 8.0 9.7 0.00 0.00 0.00 46 1006.4
20260506165438 21 218 6.4 8.0 0.00 0.00 0.00 47 1006.4
20260506164938 21 29 3.2 4.8 0.00 0.00 0.00 47 1006.4
20260506164438 21 320 4.8 8.0 0.00 0.00 0.00 43 1006.8
20260506163938 21 298 4.8 6.4 0.00 0.00 0.00 44 1006.8
20260506163438 21 287 8.0 9.7 0.00 0.00 0.00 42 1006.8
20260506162938 22 284 6.4 6.4 0.00 0.00 0.00 41 1006.8
20260506162438 22 299 4.8 4.8 0.00 0.00 0.00 41 1006.8
20260506161938 22 283 4.8 6.4 0.00 0.00 0.00 42 1006.8
20260506161438 22 292 12.9 17.7 0.00 0.00 0.00 39 1006.8
20260506160938 23 227 12.9 17.7 0.00 0.00 0.00 38 1006.4
20260506160438 24 237 4.8 4.8 0.00 0.00 0.00 37 1006.4
20260506155938 25 208 6.4 12.9 0.00 0.00 0.00 36 1006.8
20260506155438 26 302 6.4 9.7 0.00 0.00 0.00 35 1006.8
20260506154938 25 318 9.7 11.3 0.00 0.00 0.00 34 1006.8
20260506154438 25 296 4.8 9.7 0.00 0.00 0.00 34 1006.8
20260506153938 25 306 6.4 12.9 0.00 0.00 0.00 35 1006.8
20260506153438 25 293 14.5 20.9 0.00 0.00 0.00 33 1006.8
20260506152938 26 295 4.8 6.4 0.00 0.00 0.00 32 1006.8
20260506152438 27 318 1.6 1.6 0.00 0.00 0.00 32 1006.8
20260506151938 26 274 3.2 3.2 0.00 0.00 0.00 32 1006.8
20260506151438 26 226 4.8 6.4 0.00 0.00 0.00 32 1006.8
20260506150938 26 285 11.3 16.1 0.00 0.00 0.00 33 1007.5
20260506150438 26 265 8.0 11.3 0.00 0.00 0.00 33 1007.5
20260506145938 26 314 3.2 4.8 0.00 0.00 0.00 36 1007.5
20260506145438 26 295 11.3 16.1 0.00 0.00 0.00 33 1007.5
20260506144938 26 295 9.7 12.9 0.00 0.00 0.00 36 1007.5
20260506144438 26 216 8.0 16.1 0.00 0.00 0.00 34 1007.5
20260506143938 25 281 14.5 20.9 0.00 0.00 0.00 34 1007.5
20260506143438 26 258 9.7 12.9 0.00 0.00 0.00 34 1007.8
20260506142938 26 235 16.1 17.7 0.00 0.00 0.00 33 1007.8
20260506142438 26 292 16.1 20.9 0.00 0.00 0.00 33 1007.8
20260506141938 26 281 11.3 17.7 0.00 0.00 0.00 32 1007.8
20260506141438 26 276 9.7 12.9 0.00 0.00 0.00 33 1007.8
20260506140938 26 327 16.1 24.1 0.00 0.00 0.00 33 1007.8
20260506140438 26 267 9.7 9.7 0.00 0.00 0.00 33 1007.8
20260506135938 26 315 19.3 27.4 0.00 0.00 0.00 34 1007.8
20260506135438 26 309 4.8 11.3 0.00 0.00 0.00 33 1007.8
20260506134938 26 233 19.3 27.4 0.00 0.00 0.00 35 1007.8
20260506134438 26 254 17.7 24.1 0.00 0.00 0.00 34 1007.8
20260506133938 26 222 9.7 19.3 0.00 0.00 0.00 35 1007.8
20260506133438 25 268 12.9 14.5 0.00 0.00 0.00 36 1007.8
20260506132938 26 295 4.8 11.3 0.00 0.00 0.00 36 1007.8
20260506132438 26 216 6.4 9.7 0.00 0.00 0.00 38 1007.8
20260506131938 26 308 12.9 14.5 0.00 0.00 0.00 36 1007.8
20260506131438 26 191 16.1 20.9 0.00 0.00 0.00 37 1007.8
20260506130938 26 163 6.4 14.5 0.00 0.00 0.00 37 1008.1
20260506130438 25 310 24.1 30.6 0.00 0.00 0.00 37 1008.1
20260506125938 25 217 19.3 27.4 0.00 0.00 0.00 37 1008.1
20260506125438 25 157 9.7 14.5 0.00 0.00 0.00 37 1008.1
20260506124938 26 216 14.5 20.9 0.00 0.00 0.00 36 1008.1
20260506124438 26 278 9.7 11.3 0.00 0.00 0.00 36 1008.1
20260506123938 26 267 12.9 19.3 0.00 0.00 0.00 36 1008.1
20260506123438 25 214 17.7 22.5 0.00 0.00 0.00 36 1008.1
20260506122938 26 299 14.5 20.9 0.00 0.00 0.00 36 1008.1
20260506122438 25 295 12.9 19.3 0.00 0.00 0.00 37 1008.1
20260506121938 26 244 12.9 14.5 0.00 0.00 0.00 37 1008.1
20260506121438 26 242 12.9 17.7 0.00 0.00 0.00 35 1008.1
20260506120938 26 294 11.3 22.5 0.00 0.00 0.00 36 1008.1
20260506120438 26 227 9.7 17.7 0.00 0.00 0.00 36 1008.1
20260506115938 25 258 17.7 24.1 0.00 0.00 0.00 36 1008.1
20260506115438 26 241 16.1 27.4 0.00 0.00 0.00 35 1008.1
20260506114938 26 252 9.7 14.5 0.00 0.00 0.00 37 1008.1
20260506114438 26 292 9.7 12.9 0.00 0.00 0.00 37 1007.8
20260506113938 26 176 16.1 19.3 0.00 0.00 0.00 37 1007.8
20260506113438 26 246 11.3 16.1 0.00 0.00 0.00 36 1008.1
20260506112938 26 274 20.9 27.4 0.00 0.00 0.00 38 1008.1
20260506112438 25 282 16.1 19.3 0.00 0.00 0.00 36 1008.1
20260506111938 25 207 20.9 27.4 0.00 0.00 0.00 37 1008.1
20260506111438 25 307 27.4 35.4 0.00 0.00 0.00 39 1008.1
20260506110938 25 280 6.4 11.3 0.00 0.00 0.00 37 1008.1
20260506110438 25 271 16.1 16.1 0.00 0.00 0.00 36 1008.1
20260506105938 25 276 17.7 27.4 0.00 0.00 0.00 38 1008.1
20260506105438 25 284 14.5 14.5 0.00 0.00 0.00 39 1008.1
20260506104938 24 184 12.9 14.5 0.00 0.00 0.00 41 1008.1
20260506104438 24 266 16.1 25.7 0.00 0.00 0.00 41 1008.5
20260506103938 25 335 3.2 3.2 0.00 0.00 0.00 43 1008.5
20260506103438 23 309 3.2 6.4 0.00 0.00 0.00 44 1008.5
20260506102937 23 282 1.6 6.4 0.00 0.00 0.00 43 1008.5
20260506101937 24 323 9.7 16.1 0.00 0.00 0.00 42 1008.1
20260506101438 24 271 9.7 14.5 0.00 0.00 0.00 41 1008.1
20260506100938 25 306 6.4 12.9 0.00 0.00 0.00 41 1008.1
20260506100438 25 288 20.9 25.7 0.00 0.00 0.00 43 1008.1
20260506095938 24 230 16.1 17.7 0.00 0.00 0.00 42 1008.1
20260506095438 24 259 4.8 8.0 0.00 0.00 0.00 43 1008.1
20260506094938 24 272 17.7 22.5 0.00 0.00 0.00 43 1008.1
20260506094438 23 284 14.5 20.9 0.00 0.00 0.00 45 1008.1
20260506093938 23 180 38.6 45.1 0.00 0.00 0.00 46 1008.1
20260506093438 23 194 17.7 24.1 0.00 0.00 0.00 46 1008.1
20260506092938 23 251 11.3 20.9 0.00 0.00 0.00 45 1008.1
20260506092438 23 245 11.3 12.9 0.00 0.00 0.00 46 1008.1
20260506091938 23 291 12.9 14.5 0.00 0.00 0.00 46 1008.1
20260506091438 23 255 19.3 20.9 0.00 0.00 0.00 46 1008.1
20260506090938 23 279 11.3 20.9 0.00 0.00 0.00 47 1008.1
20260506090438 23 281 16.1 17.7 0.00 0.00 0.00 46 1008.1
20260506085938 23 249 19.3 25.7 0.00 0.00 0.00 46 1008.1
20260506085438 23 290 9.7 12.9 0.00 0.00 0.00 46 1008.1
20260506084938 23 258 11.3 17.7 0.00 0.00 0.00 49 1008.1
20260506084438 22 297 11.3 16.1 0.00 0.00 0.00 47 1008.1
20260506083938 22 315 14.5 20.9 0.00 0.00 0.00 49 1008.1
20260506083437 23 264 9.7 14.5 0.00 0.00 0.00 47 1008.1
20260506082938 22 338 9.7 16.1 0.00 0.00 0.00 48 1008.1
20260506082437 22 308 4.8 8.0 0.00 0.00 0.00 48 1007.8
20260506081937 22 277 6.4 8.0 0.00 0.00 0.00 47 1007.8
20260506081437 21 309 11.3 14.5 0.00 0.00 0.00 50 1007.8
20260506080937 21 226 14.5 24.1 0.00 0.00 0.00 50 1007.8
20260506080438 21 307 11.3 24.1 0.00 0.00 0.00 51 1007.8
20260506073437 20 260 17.7 27.4 0.00 0.00 0.00 52 1007.5
20260506072937 20 219 14.5 17.7 0.00 0.00 0.00 50 1007.5
20260506072437 20 206 20.9 27.4 0.00 0.00 0.00 52 1007.5
20260506071937 20 321 17.7 17.7 0.00 0.00 0.00 52 1007.5
20260506071437 20 274 37.0 49.9 0.00 0.00 0.00 52 1007.5
20260506070437 20 244 24.1 33.8 0.00 0.00 0.00 53 1007.8
20260506062437 19 199 22.5 27.4 0.00 0.00 0.00 53 1007.5
20260506061937 20 254 8.0 9.7 0.00 0.00 0.00 53 1007.5
20260506061438 20 282 6.4 9.7 0.00 0.00 0.00 53 1007.5
20260506060937 19 308 6.4 8.0 0.00 0.00 0.00 53 1007.5
20260506060437 19 275 4.8 8.0 0.00 0.00 0.00 52 1007.5
20260506050937 18 289 6.4 9.7 0.00 0.00 0.00 58 1006.8
20260506050437 18 295 0.0 1.6 0.00 0.00 0.00 59 1006.8
20260506044937 17 305 4.8 9.7 0.00 0.00 0.00 59 1006.8
20260506044437 17 221 9.7 11.3 0.00 0.00 0.00 58 1006.8
20260506043937 17 317 1.6 3.2 0.00 0.00 0.00 59 1006.8
20260506043437 17 242 4.8 6.4 0.00 0.00 0.00 59 1006.8
20260506042937 16 215 6.4 8.0 0.00 0.00 0.00 61 1006.8
20260506042437 16 206 6.4 8.0 0.00 0.00 0.00 61 1006.8
20260506041937 15 266 3.2 3.2 0.00 0.00 0.00 64 1006.8
20260506041437 15 271 3.2 3.2 0.00 0.00 0.00 64 1006.8
20260506040937 15 309 3.2 3.2 0.00 0.00 0.00 65 1006.8
20260506040437 14 328 0.0 0.0 0.00 0.00 0.00 66 1006.8
20260506035937 15 308 4.8 6.4 0.00 0.00 0.00 63 1006.8
20260506035437 15 310 1.6 6.4 0.00 0.00 0.00 65 1006.8
20260506034937 14 300 3.2 3.2 0.00 0.00 0.00 66 1006.8
20260506034438 13 321 0.0 1.6 0.00 0.00 0.00 69 1006.4
20260506033937 13 300 1.6 1.6 0.00 0.00 0.00 72 1006.4
20260506033437 12 327 0.0 0.0 0.00 0.00 0.00 74 1006.4
20260506032937 11 326 0.0 0.0 0.00 0.00 0.00 77 1006.4
20260506032437 11 314 1.6 1.6 0.00 0.00 0.00 77 1006.4
20260506031937 10 272 6.4 9.7 0.00 0.00 0.00 80 1006.4
20260506031437 9 349 1.6 1.6 0.00 0.00 0.00 84 1006.4
20260506030938 8 343 1.6 3.2 0.00 0.00 0.00 88 1006.8
20260506030437 8 348 0.0 1.6 0.00 0.00 0.00 91 1006.8
20260506025937 8 344 0.0 0.0 0.00 0.00 0.00 92 1006.8
20260506025437 8 344 0.0 1.6 0.00 0.00 0.00 93 1006.8
20260506024937 8 338 0.0 0.0 0.00 0.00 0.00 93 1006.8
20260506024437 8 338 1.6 3.2 0.00 0.00 0.00 93 1006.8
20260506023937 8 334 0.0 0.0 0.00 0.00 0.00 93 1006.8
20260506023437 7 334 0.0 0.0 0.00 0.00 0.00 93 1006.4
20260506022937 8 334 0.0 0.0 0.00 0.00 0.00 95 1006.4
20260506022437 7 330 0.0 0.0 0.00 0.00 0.00 94 1006.4
20260506021937 7 328 0.0 0.0 0.00 0.00 0.00 93 1006.4
20260506021437 7 333 0.0 0.0 0.00 0.00 0.00 93 1006.4
20260506020937 7 333 0.0 0.0 0.00 0.00 0.00 94 1006.4
20260506020437 8 333 0.0 0.0 0.00 0.00 0.00 93 1006.4
20260506015937 8 333 0.0 0.0 0.00 0.00 0.00 94 1006.4
20260506015437 8 337 0.0 0.0 0.00 0.00 0.00 94 1006.4
20260506014937 8 337 0.0 0.0 0.00 0.00 0.00 93 1006.4
20260506014437 8 337 0.0 0.0 0.00 0.00 0.00 92 1006.8
20260506013937 8 337 0.0 0.0 0.00 0.00 0.00 89 1006.8
20260506013437 8 338 0.0 0.0 0.00 0.00 0.00 88 1006.8
20260506012937 8 336 0.0 0.0 0.00 0.00 0.00 87 1006.8
20260506012437 9 340 0.0 0.0 0.00 0.00 0.00 87 1006.8
20260506011937 8 318 1.6 3.2 0.00 0.00 0.00 88 1006.8
20260506011438 8 324 0.0 1.6 0.00 0.00 0.00 88 1006.8
20260506010937 9 316 1.6 3.2 0.00 0.00 0.00 90 1006.8
20260506010437 9 352 1.6 1.6 0.00 0.00 0.00 89 1006.8
20260506005937 9 352 1.6 1.6 0.00 0.00 0.00 86 1006.8
20260506005437 8 341 0.0 0.0 0.00 0.00 0.00 89 1006.8
20260506004937 9 341 0.0 0.0 0.00 0.00 0.00 87 1006.8
20260506004437 9 341 0.0 0.0 0.00 0.00 0.00 87 1006.8
20260506003937 9 333 0.0 0.0 0.00 0.00 0.00 89 1006.8
20260506003437 9 333 0.0 0.0 0.00 0.00 0.00 88 1006.8
20260506002937 10 333 0.0 0.0 0.00 0.00 0.00 86 1006.8
20260506002437 10 332 0.0 0.0 0.00 0.00 0.00 85 1006.8
20260506001937 10 335 0.0 0.0 0.00 0.00 0.00 86 1006.8
20260506001437 10 339 0.0 0.0 0.00 0.00 0.00 82 1006.8
20260506000937 10 339 0.0 0.0 0.00 0.00 0.00 79 1006.8
20260506000438 11 339 0.0 0.0 0.00 0.00 0.00 78 1006.8
20260505235938 11 347 0.0 1.6 0.00 0.00 0.00 76 1007.5
20260505235437 11 335 0.0 1.6 0.00 0.00 0.00 79 1007.5
20260505234937 11 342 0.0 1.6 0.00 0.00 0.00 81 1007.5
20260505234437 11 341 0.0 0.0 0.00 0.00 0.00 77 1007.5
20260505233937 11 339 0.0 0.0 0.00 0.00 0.00 79 1007.5
20260505233437 11 341 0.0 0.0 0.00 0.00 0.00 79 1007.5
20260505232937 11 341 0.0 0.0 0.00 0.00 0.00 79 1007.5
20260505232437 11 343 0.0 0.0 0.00 0.00 0.00 77 1007.8
20260505231937 11 329 0.0 0.0 0.00 0.00 0.00 79 1007.8
20260505231437 11 338 0.0 0.0 0.00 0.00 0.00 79 1007.8
20260505230937 11 339 0.0 0.0 0.00 0.00 0.00 81 1007.8
20260505230437 11 342 0.0 1.6 0.00 0.00 0.00 82 1007.8
20260505225937 10 329 0.0 0.0 0.00 0.00 0.00 81 1007.8
20260505225437 10 345 0.0 0.0 0.00 0.00 0.00 79 1007.8
20260505224937 10 329 0.0 0.0 0.00 0.00 0.00 82 1007.8
20260505224437 10 329 0.0 0.0 0.00 0.00 0.00 79 1007.8
20260505223937 10 342 0.0 0.0 0.00 0.00 0.00 78 1007.8
20260505223437 11 345 0.0 1.6 0.00 0.00 0.00 79 1008.1
20260505222937 11 25 3.2 3.2 0.00 0.00 0.00 78 1008.1
20260505222437 11 22 4.8 4.8 0.00 0.00 0.00 75 1008.1
20260505221937 10 336 1.6 3.2 0.00 0.00 0.00 77 1008.1
20260505221437 10 332 0.0 0.0 0.00 0.00 0.00 77 1008.1
20260505220937 10 318 0.0 0.0 0.00 0.00 0.00 79 1008.1
20260505220437 10 329 0.0 0.0 0.00 0.00 0.00 79 1008.1
20260505215937 10 329 0.0 0.0 0.00 0.00 0.00 80 1008.5
20260505215437 11 333 0.0 0.0 0.00 0.00 0.00 78 1008.5
20260505214937 11 334 0.0 0.0 0.00 0.00 0.00 75 1008.5
20260505214437 11 344 0.0 0.0 0.00 0.00 0.00 72 1008.1
20260505213937 11 338 0.0 0.0 0.00 0.00 0.00 69 1008.1
20260505213437 11 338 0.0 0.0 0.00 0.00 0.00 70 1008.1
20260505212937 11 336 0.0 0.0 0.00 0.00 0.00 69 1008.1
20260505212437 11 345 0.0 0.0 0.00 0.00 0.00 66 1008.5
20260505211937 11 335 0.0 0.0 0.00 0.00 0.00 74 1008.5
20260505211437 12 336 1.6 1.6 0.00 0.00 0.00 68 1008.5
20260505210937 12 339 0.0 0.0 0.00 0.00 0.00 65 1008.5
20260505210437 12 339 0.0 0.0 0.00 0.00 0.00 72 1008.5
20260505205937 12 339 0.0 1.6 0.00 0.00 0.00 65 1008.5
20260505205437 12 344 1.6 3.2 0.00 0.00 0.00 63 1008.5
20260505204937 12 338 1.6 1.6 0.00 0.00 0.00 66 1008.5
20260505204437 12 348 1.6 1.6 0.00 0.00 0.00 63 1008.5
20260505203937 12 347 3.2 4.8 0.00 0.00 0.00 61 1008.5
20260505203437 12 337 0.0 1.6 0.00 0.00 0.00 65 1008.5
20260505202937 12 333 0.0 1.6 0.00 0.00 0.00 61 1008.5
20260505202437 12 335 1.6 3.2 0.00 0.00 0.00 67 1008.5
20260505201937 12 338 0.0 0.0 0.00 0.00 0.00 60 1008.5
20260505201437 13 338 1.6 1.6 0.00 0.00 0.00 61 1008.5
20260505200937 13 330 1.6 1.6 0.00 0.00 0.00 59 1008.5
20260505200437 13 315 1.6 1.6 0.00 0.00 0.00 67 1008.5
20260505195937 13 333 0.0 0.0 0.00 0.00 0.00 62 1008.5
20260505192937 14 332 1.6 1.6 0.00 0.00 0.00 62 1008.1